This is the latest recevied weather packets stored in our database for station/object N3WAX-1. If no packets are shown the sender has not sent any weather packets the latest 10 day(s).
| Time | Temp. | Humidity | Pressure | Rain* | Wind** | Luminosity | Snow |
|---|---|---|---|---|---|---|---|
| 1777506565 | 10° C | 85% | 1009.2 hPa | 0 mm | - | 0 W/m² | - |
| 1777506407 | 10° C | 84% | 1009.4 hPa | 0 mm | - | 0 W/m² | - |
| 1777504105 | 10.56° C | 79% | 1009.8 hPa | 0 mm | - | 0 W/m² | - |
| 1777503800 | 10.56° C | 79% | 1009.6 hPa | 0 mm | - | 5 W/m² | - |
| 1777503183 | 11.11° C | 77% | 1009.7 hPa | 0 mm | - | 7 W/m² | - |
| 1777502877 | 11.67° C | 76% | 1009.7 hPa | 0 mm | - | 12 W/m² | - |
| 1777501953 | 11.67° C | 75% | 1009.6 hPa | 0 mm | - | 21 W/m² | - |
| 1777499493 | 12.78° C | 72% | 1009.6 hPa | 0 mm | - | 32 W/m² | - |
| 1777495821 | 13.89° C | 70% | 1009.9 hPa | 0 mm | - | 114 W/m² | - |
| 1777494781 | 13.89° C | 69% | 1010.1 hPa | 0 mm | - | 202 W/m² | - |
| 1777494338 | 13.89° C | 69% | 1010.2 hPa | 0 mm | - | 248 W/m² | - |
| 1777492527 | 13.89° C | 72% | 1010.6 hPa | 0 mm | - | 165 W/m² | - |
| 1777491630 | 13.89° C | 73% | 1010.9 hPa | 0 mm | - | 167 W/m² | - |
| 1777489828 | 14.44° C | 74% | 1011.7 hPa | 0 mm | - | 221 W/m² | - |
| 1777488327 | 14.44° C | 73% | 1012.3 hPa | 0 mm | - | 146 W/m² | - |
| 1777486828 | 15° C | 67% | 1012.4 hPa | 0 mm | - | 162 W/m² | - |
| 1777486527 | 15° C | 68% | 1012.1 hPa | 0 mm | - | 260 W/m² | - |
| 1777485321 | 15° C | 65% | 1012.9 hPa | 0 mm | - | 141 W/m² | - |
| 1777485028 | 15° C | 67% | 1012.9 hPa | 0 mm | - | 262 W/m² | - |
| 1777484120 | 14.44° C | 66% | 1013 hPa | 0 mm | - | 255 W/m² | - |
| 1777474197 | 13.33° C | 62% | 1014.9 hPa | 0 mm | - | 209 W/m² | - |
| 1777472515 | 12.78° C | 66% | 1015.1 hPa | 0 mm | - | 185 W/m² | - |
| 1777470291 | 12.78° C | 66% | 1015.2 hPa | 0 mm | - | 204 W/m² | - |
| 1777467397 | 12.22° C | 63% | 1015.4 hPa | 0 mm | - | 283 W/m² | - |
| 1777466658 | 11.67° C | 63% | 1015.5 hPa | 0 mm | - | 186 W/m² | - |
* Rain latest hour (hover to see other rain measurements)
** Current wind speed in m/s (hover to see current wind gust speed)